This demonstration page uses our WeatherBlox Daily Observations layout. Learn more.

Left ArrowRight Arrow

39.29038, -76.61219

Hourly Observations for November 19, 2020

Temp ( °F °C ) Dew Point ( °F °C ) Humidity (%) Winds ( mph kmh ) Pressure ( in mb ) Visibility ( mi km ) Precip ( " mm )
12:54 am 00:54 Clear 27 -2.8 21 -6.1 78 78 W 3 6 30.61 1037 10 16 0.00 0.00
1:54 am 01:54 Clear 28 -2.2 22 -5.6 78 78 W 5 7 30.60 1036 10 16 0.00 0.00
2:54 am 02:54 Clear 30 -1.1 23 -5 75 75 Calm 30.60 1036 10 16 0.00 0.00
3:54 am 03:54 Clear 29 -1.7 23 -5 78 78 Calm 30.62 1037 10 16 0.00 0.00
4:54 am 04:54 Mostly Clear 29 -1.7 22 -5.6 75 75 Calm 30.62 1037 10 16 0.00 0.00
5:54 am 05:54 Mostly Clear 28 -2.2 23 -5 81 81 Calm 30.62 1037 10 16 0.00 0.00
6:54 am 06:54 Partly Cloudy 28 -2.2 23 -5 81 81 Calm 30.62 1037 10 16 0.00 0.00
7:54 am 07:54 Partly Cloudy 32 0 26 -3.3 79 79 Calm 30.63 1037 10 16 0.00 0.00
8:54 am 08:54 Mostly Cloudy 38 3.3 27 -2.8 65 65 SSW 5 7 30.62 1037 10 16 0.00 0.00
9:54 am 09:54 Mostly Cloudy 42 5.6 27 -2.8 55 55 SSW 8 13 30.61 1037 10 16 0.00 0.00
10:54 am 10:54 Mostly Cloudy 46 7.8 26 -3.3 46 46 SW 8 13 30.59 1036 10 16 0.00 0.00
11:54 am 11:54 Mostly Cloudy 49 9.4 24 -4.4 38 38 S 12 19 30.55 1035 10 16 0.00 0.00
12:54 pm 12:54 Mostly Cloudy 52 11.1 25 -3.9 35 35 SW 9 15 30.51 1033 10 16 0.00 0.00
1:54 pm 13:54 Mostly Cloudy 52 11.1 24 -4.4 34 34 VRB 7 11 30.49 1033 10 16 0.00 0.00
2:54 pm 14:54 Mostly Cloudy 53 11.7 25 -3.9 34 34 S 9 15 30.48 1032 10 16 0.00 0.00
3:54 pm 15:54 Mostly Cloudy 52 11.1 25 -3.9 35 35 S 10 17 30.47 1032 10 16 0.00 0.00
4:54 pm 16:54 Mostly Cloudy 50 10 26 -3.3 39 39 S 6 9 30.46 1031 10 16 0.00 0.00
5:54 pm 17:54 Mostly Cloudy 49 9.4 27 -2.8 43 43 Calm 30.45 1031 10 16 0.00 0.00
6:54 pm 18:54 Partly Cloudy 47 8.3 26 -3.3 44 44 S 3 6 30.45 1031 10 16 0.00 0.00
7:54 pm 19:54 Partly Cloudy 47 8.3 27 -2.8 46 46 S 5 7 30.43 1031 10 16 0.00 0.00
8:54 pm 20:54 Partly Cloudy 47 8.3 27 -2.8 46 46 SSW 5 7 30.42 1030 10 16 0.00 0.00
9:54 pm 21:54 Mostly Clear 47 8.3 27 -2.8 46 46 SSW 3 6 30.42 1030 10 16 0.00 0.00
10:54 pm 22:54 Mostly Clear 48 8.9 28 -2.2 46 46 SSW 6 9 30.40 1030 10 16 0.00 0.00
11:54 pm 23:54 Mostly Cloudy 47 8.3 28 -2.2 48 48 SSW 6 9 30.40 1029 10 16 0.00 0.00

Powered by AerisWeather